Location: DARK SKY Beskydy - Park tmavé oblohy, www.darkskybeskydy.cz
(49.4926°N, 18.5016°E)
Time: 11:47:52
(UTC+01:00)

Vanguard 1 Rocket - Visible Passes

Search period start: 22 February 2024 00:00
Search period end: 03 March 2024 00:00
Orbit: 654 x 4218 km, 34.3° (Epoch: 21 February)

Date Brightness Start Highest point End Pass type
(mag) Time Alt. Az. Time Alt. Az. Time Alt. Az.
23 Feb 11.8 05:23:08 10° S 05:31:32 14° SSE 05:38:17 10° ESE visible
25 Feb 11.6 05:20:02 10° S 05:32:49 19° SSE 05:42:09 10° ESE visible
26 Feb 11.8 04:10:55 10° SSE 04:19:43 14° SE 04:27:06 10° ESE visible
27 Feb 11.4 05:18:10 10° SSW 05:34:01 25° SSE 05:45:00 10° ESE visible
28 Feb 11.7 04:07:07 10° S 04:20:45 19° SE 04:31:23 10° ESE visible
29 Feb 11.9 03:00:13 10° SSE 03:07:32 12° SE 03:14:07 10° ESE visible
29 Feb 11.3 05:16:56 10° SSW 05:35:10 30° SSE 05:47:23 10° ESE visible
01 Mar 11.5 04:04:50 10° S 04:21:43 24° SSE 04:34:23 10° ESE visible
02 Mar 11.7 02:55:09 10° S 03:08:18 17° SE 03:19:26 10° ESE visible
02 Mar 11.1 05:16:11 10° SSW 05:36:14 35° SSE 05:49:28 10° E visible
